User: anonymous   Login
Location: Granada
(37.1830°N, 3.6000°W)
Time: 23:09:52
(UTC+01:00)
Language:

Iridium 70 - Orbit

View from above orbital plane
View from above orbital plane
View from above satellite
View from above satellite

Ground track
Ground track

The orbit data is extracted from the following two-line orbital elements,

1 25342U 98032A   15 86.68319796 -.00000573  00000-0  00000+0 0  9992
2 25342 086.4004 203.8097 0002685 099.6892 260.5095 14.34213727882642
Epoch (UTC): 27 March 2015 16:23:48
Eccentricity: 0.0002685
inclination: 86.4004°
perigee height: 776 km
apogee height: 779 km
right ascension of ascending node: 203.8097°
argument of perigee: 99.6892°
revolutions per day: 14.34213727
mean anomaly at epoch: 260.5095°
orbit number at epoch: 88264

The dashed part of the orbit path shows where the satellite is in the earth's shadow,  

DLR